Location: São Paulo
(23.5507°S, 46.6334°W)
Time: 11:02:58
(UTC-03:00)

Transit 4A - Pass Details

Date: 21 February 2026
Orbit: 864 x 977 km, 66.8° (Epoch: 11 March)

Event Time Altitude Azimuth Distance (km) Brightness Sun altitude
Rises 00:56:39 0° 205° (SSW) 3,496 - -54.7°
Reaches altitude 10° 00:59:10 10° 206° (SSW) 2,541 - -54.6°
Maximum altitude 01:05:01 78° 291° (WNW) 890 - -54.2°
Drops below altitude 10° 01:10:46 10° 17° (NNE) 2,495 - -53.7°
Sets 01:13:13 0° 18° (NNE) 3,428 - -53.5°
